Theta_e
338 343 352 352 351 351 350 350 349 349 349 349 343 340 339 338 337 336 335 334 336 336 336 337 336 336 336 337 338 339 341 343 344 347 348 347 347 350 352 352 351 348 350
341 344 353 352 351 350 350 350 348 347 348 346 341 339 338 337 336 334 333 334 335 334 335 335 335 336 335 335 335 336 337 338 341 343 345 348 348 347 350 352 351 348 354
342 345 349 352 351 350 350 347 346 346 345 342 339 338 336 335 335 333 332 333 334 334 335 334 335 335 335 334 334 334 335 338 339 341 344 338 338 348 349 349 352 353 353
345 345 346 352 351 350 346 344 343 342 342 341 338 336 335 336 334 332 331 333 334 334 333 334 334 334 333 333 333 333 333 335 337 340 331 333 336 341 346 351 349 351 351
345 345 346 352 351 348 344 341 339 338 337 338 339 336 334 333 330 331 332 332 332 332 332 332 332 333 333 333 333 333 333 333 335 334 324 323 325 336 344 350 350 349 350
342 345 349 352 350 346 342 340 338 336 335 337 336 335 335 331 331 331 330 331 329 328 329 330 331 331 332 332 332 332 333 333 334 322 321 324 331 339 349 351 350 349 350
341 343 347 352 349 344 341 339 336 335 336 337 336 336 332 330 331 330 330 332 329 328 329 331 332 332 333 333 333 333 333 333 325 320 324 337 335 350 350 349 347 348 347
342 344 346 351 347 344 341 337 334 332 333 334 334 332 331 333 331 331 331 332 331 331 331 333 334 335 336 336 336 335 334 334 328 322 326 336 347 349 347 346 344 344 346
344 344 344 343 342 344 341 337 334 332 331 331 330 330 331 333 333 334 334 334 333 332 333 335 336 336 336 336 336 341 334 335 324 321 325 336 346 346 345 344 343 344 343
343 344 340 338 336 333 332 338 335 334 332 331 329 330 333 333 334 335 337 335 335 334 335 336 336 338 338 333 334 340 334 336 322 320 322 336 346 344 344 343 344 343 342
340 339 339 335 332 331 331 332 336 335 334 332 331 332 323 325 323 325 331 338 337 335 335 333 333 332 332 327 330 331 330 320 319 325 334 343 344 342 340 340 339 337 337
336 338 338 334 331 329 333 329 329 330 327 324 320 320 318 318 323 325 329 335 333 331 329 330 331 328 324 314 315 321 316 320 323 331 333 343 342 340 339 337 335 333 333
336 338 338 333 330 328 327 326 327 326 324 323 320 319 316 318 318 316 315 314 313 324 316 317 317 315 314 314 314 312 316 324 328 332 337 341 340 337 335 334 333 332 331
329 336 337 334 331 327 326 326 326 325 324 321 318 319 316 316 318 317 315 314 313 315 315 314 315 315 315 315 314 312 313 323 325 327 331 339 341 336 334 333 332 332 331
323 331 334 334 330 327 325 326 325 323 324 321 318 319 318 316 317 318 316 314 314 316 314 313 313 315 315 315 312 315 314 315 323 324 324 337 338 338 335 334 332 332 331
317 322 325 333 330 329 328 324 322 321 322 319 318 320 320 316 316 318 316 313 315 315 314 313 313 314 314 315 312 313 315 316 317 322 324 327 338 338 336 334 334 333 332
317 322 326 325 328 326 325 323 321 319 322 319 319 320 321 317 316 318 316 313 315 314 314 313 314 314 314 315 312 313 314 317 323 322 323 325 329 338 336 336 335 334 333
320 323 325 329 324 323 325 324 323 321 321 320 319 320 321 320 318 319 316 315 316 314 313 313 313 312 312 313 311 311 312 314 315 321 325 326 326 326 331 336 335 335 335
320 321 323 324 323 323 325 324 322 318 318 318 321 320 321 322 321 317 317 316 315 314 314 313 312 311 311 313 314 313 311 312 313 316 315 316 322 325 323 327 335 337 335
320 320 321 322 323 324 324 321 322 318 317 316 319 321 323 320 323 316 318 318 316 315 314 312 311 311 311 311 315 313 310 311 312 312 313 314 313 314 314 314 316 318 330
320 319 319 320 321 322 321 319 318 317 317 317 319 323 323 320 322 317 318 316 315 315 314 313 312 311 310 312 310 310 308 311 311 312 313 313 314 315 314 314 314 315 316
319 319 319 321 322 322 320 320 319 318 318 320 320 322 322 321 321 319 318 316 314 314 314 314 312 309 309 311 309 305 304 307 310 314 312 313 313 314 315 317 316 316 315
319 319 319 321 322 321 319 320 319 317 318 317 317 319 320 322 321 321 318 317 314 314 312 313 312 310 309 310 311 309 304 302 305 310 312 311 313 312 314 315 316 316 317
320 320 320 321 322 322 319 319 318 315 315 317 318 319 320 322 322 321 320 318 315 314 312 313 315 312 310 311 311 314 312 311 306 307 310 312 312 314 314 313 314 315 315
323 322 321 321 321 322 319 322 321 318 316 321 319 319 318 318 320 322 320 318 316 314 313 314 314 313 312 311 311 310 310 310 310 311 309 308 311 312 313 313 313 313 315
325 324 324 321 320 321 321 322 322 323 320 319 317 317 317 318 319 319 321 317 317 315 315 316 316 315 315 314 314 312 311 314 309 310 309 312 306 309 311 312 312 312 312
Wind_Speed
7 7 14 12 10 10 10 9 8 6 6 9 9 8 8 8 8 8 8 7 7 7 9 8 9 8 8 8 7 8 8 7 6 6 6 5 5 2 4 7 8 6 7
11 7 15 12 11 10 9 9 8 7 7 9 8 7 7 6 6 7 7 6 8 7 7 7 7 8 7 7 7 7 7 6 6 6 7 7 6 5 5 7 8 5 6
11 7 10 13 11 11 10 9 9 9 9 8 7 7 5 5 5 6 6 5 6 6 6 6 7 7 8 8 7 7 7 7 6 6 8 3 3 8 8 8 9 7 5
9 6 6 13 12 11 11 9 9 8 8 7 6 6 4 4 4 3 4 5 6 6 6 6 6 6 6 6 7 7 6 7 8 8 4 5 6 9 10 10 9 9 7
8 5 7 13 13 13 11 9 8 6 6 5 6 5 3 3 3 3 3 5 6 6 7 6 7 7 7 7 6 6 7 6 7 7 5 6 5 9 12 9 11 11 10
6 7 11 14 13 12 10 9 7 7 5 6 6 4 3 3 3 2 3 4 5 5 6 7 7 8 9 9 8 7 7 7 7 5 6 7 6 10 16 15 12 9 8
8 6 9 15 14 12 10 8 7 6 6 7 5 4 3 2 1 2 3 5 5 5 6 7 8 8 9 9 9 7 6 5 3 4 5 4 4 3 8 7 4 4 6
10 6 6 14 13 12 10 8 7 7 6 6 5 3 3 3 3 3 3 3 6 7 7 8 9 10 9 10 10 8 7 5 3 4 5 1 8 8 7 4 2 4 5
6 6 5 5 9 12 10 8 7 7 7 6 5 3 5 6 5 6 6 4 7 9 9 10 11 10 9 10 11 7 4 5 2 2 3 0 7 8 7 5 2 1 2
5 5 5 5 5 5 5 9 8 7 6 5 3 4 7 9 8 8 8 6 7 10 10 12 9 10 10 10 12 9 2 4 2 3 1 1 7 7 7 7 7 6 5
6 5 5 5 6 5 4 5 7 5 4 1 2 3 5 3 3 6 8 7 7 9 8 9 9 11 11 10 10 7 7 1 0 2 2 8 10 8 7 6 6 6 6
9 8 6 6 6 6 5 4 4 1 1 1 2 2 4 4 4 6 3 4 4 8 9 10 11 11 11 3 3 6 3 3 4 4 2 9 8 8 7 6 5 5 4
11 7 9 7 7 7 5 4 2 2 1 1 1 2 3 3 3 3 3 3 3 7 4 6 6 4 7 5 3 3 4 3 3 3 4 8 7 6 6 6 5 5 4
9 13 11 9 8 6 3 4 4 3 2 2 3 2 3 2 3 3 2 3 2 2 4 4 3 4 6 6 6 3 5 2 2 1 1 7 6 6 6 5 5 5 4
11 11 10 10 8 7 6 3 3 4 3 4 3 2 2 3 2 2 1 2 2 2 3 3 4 4 5 6 5 4 2 1 2 1 1 7 6 7 8 7 6 5 5
10 9 8 10 7 6 4 4 4 4 5 4 3 3 3 4 3 1 1 2 2 1 1 2 3 4 4 4 5 6 3 2 3 4 3 3 8 7 8 8 8 7 7
7 7 8 7 6 6 6 4 4 4 5 4 4 4 4 3 1 3 2 1 1 1 3 4 3 3 4 4 5 5 4 5 1 5 3 2 3 8 9 9 10 9 10
8 9 7 7 7 6 6 4 4 4 5 5 4 4 4 3 2 1 1 1 1 2 2 3 3 4 4 4 3 4 4 3 4 0 3 3 3 3 6 9 9 11 12
8 9 7 8 8 8 4 2 4 5 4 3 3 3 4 4 5 3 3 2 3 1 2 3 3 2 3 4 4 3 3 2 2 2 3 2 3 4 3 8 14 12 13
8 7 7 6 7 6 3 3 2 1 2 2 4 4 5 4 5 3 2 3 2 1 2 2 1 2 1 3 3 4 3 2 1 2 2 2 3 4 4 5 5 6 15
8 8 7 9 6 5 2 2 1 3 3 3 4 6 6 5 6 4 2 3 1 2 1 1 1 3 3 4 3 4 3 3 0 4 4 4 4 3 4 3 3 4 5
8 8 7 7 7 5 3 2 2 2 3 3 2 4 6 6 6 5 4 3 3 1 1 1 1 1 1 3 2 1 4 5 4 3 2 4 3 4 5 6 6 6 5
8 9 9 8 8 5 6 2 1 1 2 2 2 2 4 6 6 6 6 4 3 2 2 2 2 1 1 2 2 4 2 2 3 4 3 3 5 3 5 5 5 5 6
8 7 7 8 8 6 7 4 4 3 3 3 3 2 4 5 5 6 5 5 5 3 3 3 2 1 1 2 2 1 1 3 2 4 3 4 4 5 6 5 5 5 5
9 9 8 7 7 6 6 5 5 5 3 2 2 4 3 3 4 5 5 5 5 4 4 5 3 4 3 2 3 2 2 2 4 4 5 4 2 4 4 3 4 4 5
6 6 6 8 7 7 7 7 8 7 6 3 3 3 3 3 3 6 6 5 5 4 5 5 4 5 4 4 2 3 3 3 3 3 4 6 4 4 3 4 4 4 5
Wind_Direction
204 184 182 176 164 144 131 120 107 90 91 111 103 99 90 82 74 64 57 51 55 33 49 42 32 31 26 22 23 12 10 4 349 328 319 308 310 276 211 212 209 198 207
147 164 177 174 161 143 131 123 113 108 112 115 116 106 95 82 69 58 51 48 52 42 35 33 21 17 14 13 8 7 358 351 333 314 288 279 281 258 242 231 224 216 220
142 164 172 171 154 141 128 124 119 115 121 124 122 114 101 78 61 49 43 47 44 24 23 15 2 4 2 358 359 360 351 339 333 310 292 304 285 270 248 224 227 230 236
154 168 163 164 151 138 135 132 126 124 130 136 132 121 104 67 38 50 44 38 21 12 7 2 0 352 351 356 354 348 339 328 319 310 356 312 289 268 240 234 225 217 215
165 159 169 160 152 148 144 137 127 124 130 143 147 130 104 67 64 76 44 16 0 0 354 357 356 348 344 347 346 340 327 323 313 337 310 287 264 261 247 237 214 209 210
155 169 175 162 158 152 148 135 124 117 120 149 150 141 109 101 97 79 36 19 4 359 1 359 352 346 341 340 336 329 318 321 317 323 301 276 248 248 254 212 197 210 214
163 176 168 163 161 157 146 134 126 124 115 119 137 135 137 128 62 320 344 3 5 15 17 11 5 358 352 342 331 324 313 310 320 327 318 331 164 135 111 139 171 213 239
160 163 175 166 164 160 153 141 137 135 136 139 147 166 190 217 243 265 289 327 344 346 357 2 351 344 345 340 326 311 303 307 354 331 340 19 116 116 113 114 156 212 247
143 162 174 163 170 165 156 147 153 155 152 157 177 206 244 250 254 268 280 302 327 329 347 352 346 336 340 356 4 327 283 301 69 335 319 232 128 122 125 137 139 122 280
154 180 166 158 155 164 167 163 168 170 172 177 199 247 260 259 264 271 276 290 308 324 342 343 341 335 358 9 15 23 294 325 14 298 246 239 119 118 99 90 84 73 58
179 189 175 169 168 177 176 182 175 188 201 205 358 5 27 65 316 303 275 282 295 310 336 350 4 360 2 6 19 10 15 22 140 130 125 122 116 117 114 109 97 78 63
193 198 187 174 178 179 187 190 166 224 339 21 340 43 74 52 31 20 30 281 359 27 14 2 9 4 357 360 18 10 12 35 103 120 149 139 134 125 119 118 117 107 84
194 190 188 184 185 180 202 174 160 174 240 287 294 65 83 73 56 36 43 21 19 24 19 22 8 10 1 355 38 354 2 76 105 131 169 149 137 134 143 146 144 119 92
187 197 187 188 186 190 186 181 174 171 197 226 235 167 94 68 59 54 55 20 29 3 38 21 0 354 8 2 9 67 359 103 139 142 248 158 151 155 158 173 180 161 174
195 197 184 181 188 188 187 189 173 183 186 202 207 185 111 106 87 45 52 33 357 11 42 13 357 6 7 359 360 28 90 309 189 162 212 181 181 181 187 196 200 215 219
189 183 166 187 185 176 218 179 184 176 184 189 210 199 158 139 163 145 97 32 352 57 34 27 5 356 0 351 358 349 61 259 240 202 193 234 198 205 212 216 227 244 258
180 147 156 150 153 147 149 149 147 182 171 187 211 202 200 133 187 169 105 49 308 6 25 23 15 353 18 4 20 356 5 30 29 164 189 228 257 226 227 239 246 256 270
138 154 145 140 128 120 139 153 163 187 174 190 209 200 225 164 199 190 168 179 280 1 29 20 12 0 20 20 342 355 346 2 20 116 180 213 248 265 279 265 272 271 276
143 139 144 137 136 134 148 139 150 161 179 206 216 214 218 216 201 202 187 200 156 54 23 25 10 22 11 351 340 347 351 27 61 32 15 337 257 261 288 292 285 283 273
117 125 134 127 132 120 101 79 34 15 270 230 225 224 217 220 199 188 175 164 139 80 43 29 12 336 2 319 342 9 3 346 119 51 9 324 287 291 285 287 291 285 285
120 133 150 140 145 127 112 161 171 237 244 226 216 233 203 204 199 185 174 152 126 148 122 328 349 19 345 342 31 356 352 25 328 9 344 348 352 323 291 275 279 274 285
134 151 155 150 163 167 154 183 176 191 252 256 252 237 206 193 189 192 194 186 196 151 27 331 81 359 350 350 107 90 10 335 328 332 357 337 325 336 328 324 309 297 285
143 169 174 171 173 178 184 147 211 22 324 312 282 263 213 190 199 199 194 192 199 162 207 232 192 131 21 313 20 133 43 271 331 326 310 293 312 315 299 294 294 295 300
176 176 166 173 185 191 173 172 181 189 206 223 221 215 226 210 209 203 190 204 208 193 204 235 209 190 119 303 337 224 263 170 221 312 310 280 328 305 303 313 312 312 309
174 185 180 183 198 197 183 184 191 210 222 260 222 183 192 241 230 224 197 211 212 204 221 221 215 206 191 206 194 226 258 258 228 238 284 304 319 281 286 287 302 311 320
191 185 175 189 214 204 193 203 203 208 208 198 206 206 234 229 250 229 210 205 211 219 231 236 235 227 227 236 229 216 211 234 230 217 247 293 262 286 274 300 302 316 343